OTB-3-GAZELLE

Last updated on Thu Sep 24 2026 00:03:12 GMT+0000 (Coordinated Universal Time)

1 54023U 22127A 26266.54419987 .00000083 00000+0 37925-4 0 9997 2 54023 98.4046 256.7977 0011918 250.6823 109.3079 14.42703088208541
UTC large
Height (km)
Speed (km/s)
/
Latitude / Longitude
Inclination (degrees)
Orbital Period (minutes)
Azimuth
Elevation
Range (km)
Doppler Factor

Next 0 passes for location: London (51.5072 / 0.1276)

No passes found over London.
OTB-3-GAZELLE